Location: Guardia Sanframondi
(41.2500°N, 14.6000°E)
Time: 22:12:14
(UTC+00:00)

Daily predictions for brighter satellites

Satellite Brightness Start Highest point End
(mag) Time Altitude Azimuth Time Altitude Azimuth Time Altitude Azimuth
Cosmos 2369 4.0 16:56:36 10° SSW 17:02:19 79° WNW 17:08:04 10° NNE
BREEZE-M DEB (TANK) 3.6 17:00:45 10° WSW 17:04:29 88° SSE 17:18:07 10° ENE
Cosmos 2279 Rocket 4.0 16:58:43 10° N 17:04:59 68° E 17:11:11 10° SSE
CZ-4B R/B 4.0 17:00:51 10° S 17:05:13 55° W 17:09:29 10° NNW
Cosmos 2278 3.8 17:02:34 10° S 17:08:07 59° ESE 17:13:42 10° NNE
SL-16 R/B 3.1 17:04:29 10° SSE 17:09:11 28° ESE 17:13:54 10° NE
Cosmos 2221 Rocket 3.7 17:07:03 10° N 17:11:32 57° E 17:16:00 10° SSE
PAYLOAD B 4.3 17:06:25 10° SSE 17:11:47 57° ENE 17:17:10 10° N
CZ-4B DEB 4.2 17:07:44 10° SSE 17:13:10 78° ENE 17:18:40 10° NNW
SKYMED 3 4.4 17:13:32 10° NNE 17:17:40 80° ESE 17:21:46 10° S
BREEZE-M DEB (TANK) 2.7 17:18:03 10° NW 17:20:07 38° NNE 17:23:02 12° E
DELTA 2 R/B(2) 4.3 17:23:06 10° W 17:24:50 43° S 17:27:15 13° ESE
COSMO-SKYMED 1 3.0 17:22:52 10° N 17:27:12 66° WNW 17:31:29 10° SSW
Cosmos 2263 Rocket 2.2 17:22:09 10° NNW 17:27:51 73° ENE 17:33:32 10° SSE
Cosmos 1437 Rocket 3.4 17:25:10 10° SSE 17:28:30 31° E 17:31:49 10° NNE
HJ-1C 3.9 17:27:39 10° SE 17:30:29 33° ENE 17:33:19 10° N
Spot 1 3.9 17:28:31 10° NNE 17:32:41 82° ESE 17:36:44 10° SSW
ASTEX 1 3.6 17:28:20 10° N 17:33:20 79° W 17:38:20 10° SSW
IRIDIUM 104 4.3 17:28:29 10° SSE 17:33:35 59° E 17:38:43 10° N
USA 267 3.3 17:27:35 10° ESE 17:34:05 70° NE 17:40:37 10° NW
OAO 2 Rocket 4.0 17:29:56 10° WSW 17:34:31 40° S 17:38:09 15° ESE
Aureole 3 Rocket 4.5 17:28:35 10° N 17:37:30 84° E 17:43:56 10° S
SL-4 R/B 2.6 17:34:57 10° NW 17:39:18 51° NNE 17:42:26 19° E
Cosmos 1814 Rocket 4.0 17:34:09 10° NNW 17:39:20 59° ENE 17:44:25 10° SSE
IRIDIUM 114 4.2 17:37:31 10° S 17:42:42 72° E 17:47:54 10° N
Okean-O 4.1 17:42:56 17° ENE 17:43:23 17° ENE 17:46:16 10° NNE
Cosmos 2227 4.2 17:39:36 10° NNW 17:45:10 59° ENE 17:50:42 10° SE
CZ-4 R/B 1.7 17:41:58 10° SE 17:45:58 47° ENE 17:50:00 10° N
Meteor 1-12 Rocket 4.3 17:42:55 10° S 17:48:53 77° E 17:54:56 10° NNE
ISS -3.3 17:45:55 10° WNW 17:49:14 57° SW 17:51:28 19° SE
BREEZE M DEB (TANK) 2.9 17:42:24 10° SW 17:51:04 62° SSE 17:53:02 25° ENE
Cosmos 1908 Rocket 3.4 17:47:14 10° S 17:51:33 76° E 17:55:53 10° N
IRIDIUM 103 4.3 17:46:37 10° S 17:51:50 88° E 17:57:05 10° N
MOS 1-B 4.4 17:46:05 10° SSE 17:51:53 83° WSW 17:57:44 10° NNW
Cosmos 2360 Rocket 2.9 17:48:59 10° SSE 17:53:48 29° ESE 17:58:36 10° NE
SL-14 R/B 4.5 17:51:57 10° NNW 17:55:46 46° W 17:59:36 10° SSW
Cosmos 1782 Rocket 3.7 17:55:38 10° SSE 17:59:46 47° E 18:03:58 10° NNE
Cosmos 1766 4.0 17:55:59 10° SSW 17:59:49 56° W 18:03:42 10° N
YAOGAN 1 2.7 17:59:55 10° S 18:04:13 75° WSW 18:08:33 10° NNW
Cosmos 2026 Rocket 4.0 17:59:49 10° SSE 18:05:39 53° E 18:11:31 10° NNE
Cosmos 968 Rocket 3.5 18:01:24 10° SSW 18:06:39 84° WNW 18:11:55 10° NNE
Cosmos 1025 Rocket 3.6 18:03:50 10° N 18:07:48 35° ENE 18:07:57 34° E
Okean O Rocket 1.6 18:03:42 10° SSE 18:08:03 84° WSW 18:12:27 10° NNW
Lacrosse 4 Rocket 1.3 18:07:40 10° SSW 18:11:40 61° ESE 18:13:56 25° NE
Nadezhda 4 Rocket 4.4 18:07:17 10° SSW 18:13:34 66° W 18:19:51 10° N
CSL-04 Rocket 4.0 18:13:27 32° ESE 18:15:14 43° ENE 18:20:19 10° N
Meteor 1-15 Rocket 4.3 18:09:49 10° SSW 18:15:23 75° W 18:20:58 10° N
Meteor 2-5 Rocket 3.5 18:12:04 10° N 18:17:37 75° E 18:23:04 10° SSE
USA 186 3.3 18:22:42 26° NNE 18:22:42 26° NNE 18:24:26 10° N
Cosmos 2322 Rocket 2.1 18:16:52 10° SSW 18:22:34 80° ESE 18:28:17 10° NNE
Cosmos 2237 4.1 18:17:29 10° SSW 18:23:10 84° ESE 18:28:54 10° NNE
Cosmos 2285 Rocket 4.2 18:17:59 10° NNW 18:24:18 72° WSW 18:30:39 10° S
CZ-4B R/B 4.2 18:21:24 10° S 18:26:32 46° W 18:31:48 10° NNW
Cosmos 1470 2.9 18:22:48 10° SSW 18:26:37 69° W 18:30:27 10° N
BREEZE-M DEB (TANK) 4.2 18:20:24 10° SSW 18:29:10 30° SSE 18:29:16 30° SSE
NOSS 3-3 (A) 3.8 18:25:05 10° SSW 18:30:21 53° ESE 18:32:27 36° ENE
NOSS 3-3 (C) 3.8 18:25:12 10° SSW 18:30:27 53° ESE 18:32:22 38° ENE
Cosmos 1975 Rocket 2.9 18:28:30 10° N 18:32:55 71° E 18:33:09 69° ESE
CRYOSAT 2 4.2 18:34:19 39° SSE 18:36:09 77° E 18:41:04 10° N
Aureole 1 Rocket 4.3 18:32:51 10° S 18:40:13 51° ESE 18:46:13 10° NNE
IRS-1C Rocket 4.0 18:43:42 64° ESE 18:44:07 67° ENE 18:49:21 10° N
Cosmos 1844 Rocket 2.5 18:46:58 10° NNW 18:52:41 74° ENE 18:52:59 72° E
SL-16 R/B 3.4 18:47:41 10° SW 18:53:03 42° WNW 18:58:26 10° NNE
Landsat 5 4.2 18:52:46 10° N 18:57:10 55° WNW 19:01:27 10° SSW
Resurs 01 Rocket 3.8 19:01:19 16° N 19:01:19 16° N 19:02:21 10° N
SJ-6B 4.2 19:02:07 33° NW 19:02:07 33° NW 19:04:25 10° NNW
Cosmos 2278 Rocket 4.4 19:04:26 10° NNE 19:05:42 13° NNE 19:05:42 13° NNE
USA 267 4.5 19:14:27 23° S 19:17:22 33° SW 19:23:11 10° WNW
SL-4 R/B 3.8 19:14:36 10° WNW 19:17:52 31° WSW 19:17:52 31° WSW
Okean-O 3.9 19:20:30 39° WNW 19:20:30 39° WNW 19:23:45 10° NNW
CZ-4 R/B 4.4 19:18:50 10° SW 19:21:07 14° W 19:23:25 10° WNW
Cosmos 1844 4.1 19:21:35 10° NNW 19:26:12 58° WNW 19:26:12 58° WNW
Cosmos 2333 Rocket 4.3 19:23:23 10° SSW 19:36:34 - NNE 19:24:21 15° SSW
Cosmos 2360 Rocket 3.4 19:32:19 10° SW 19:37:36 40° WNW 19:42:53 10° N
Lacrosse 4 Rocket 4.3 19:48:21 10° W 19:50:18 14° NW 19:50:18 14° NW
